Вернуться в каталог

STARLINK-30203

АктивенСвязьVLEO
NORAD 57498·PAYLOAD·🇺🇸 United States

Запущен Aug 7, 2023 с Cape Canaveral Space Force Station

Loading…

Ближайшие Пролёты (ближайшие 24 часа)

TLE

СвежийSource: CelesTrak SupGP

Эпоха: Sep 14, 2026, 21:17 UTC

1 57498C 23113D   26257.88729167  .00030448  00000+0  11022-2 0  2576
2 57498  43.0048  27.3501 0002174 273.1858  73.4461 15.27581214    12

Отслеживайте STARLINK-30203 в реальном времени с AllMySat

Download on the App Store